STARLINK-1642, 46154

Orbit data source: Space-Track

STARLINK-1642, 46154 is a payload satellite owned by SpaceX/Seattle (US) in LEO that was launched on Tue, 18 Aug 2020 UTC via an FALCON 9 launch vehicle from the Air Force Eastern Test Range (AFETR). Payload-class satellites include a variety of spacecraft equipped with specific instruments for various scientific and technological missions. These include communications satellites like Starlink; space stations such as the ISS; scientific satellites like the Hubble; Earth observation satellites from companies like Planet Labs, Umbra, and HawkEye 360; GPS; miniature CubeSats for education and research; and military/defense satellites.

Loading next visibility...
Identifier
46154, 2020-057AP
Orbit
LEO
Country
Flag of USUS
Related business
Manufacturer
SpaceX/Seattle
Mission
Partially operational Commercial Communications
Bus & Motor
STARLINK, Unknown motor
Mass
260 kg wet, ~248 kg dry
Launch date (UTC)
2020-08-18 (5 years ago)
Launch vehicle
FALCON 9
Launch site
Air Force Eastern Test Range (AFETR)
Object type
Payload
Rocket body
Debris
Shape & HBR
Box + 1 Pan, 10.1 m
Radar Cross Section
13.562 m², Large (>1 m²)

Expand to show TLE details & history
Last TLE update: 1 hour ago

TLE from 1 hour ago
0 STARLINK-1642
1 46154U 20057AP  25308.25002315  .00146368  00000-0  28535-2 0  9993
2 46154  53.0492 132.1220 0011804 130.3476 171.5717 15.46463548  5947
Epoch: 2025-11-04T06:00Z
TLE epoch observation values (Epoch: 2025-11-04T06:00:02.000Z)
Latitude
-42.89913°
Longitude
-45.66109°
Altitude
449.376 km
Speed
7.638 km/s
True Right ascension
05h 52m 20s
True Declination
-42° 43' 12"
Sunlit
Object was in daylight at epoch
Visualization orbit readout
Latitude
Unknown
Longitude
Unknown
Altitude
Unknown
Speed
Unknown
Apparent Right ascension
Unknown
Apparent Declination
Unknown
Sunlit
N/A
Visualization observer readout
Local Sidereal Time
03:20:45
Azimuth
Unknown
Elevation
Unknown
Doppler factor
Unknown
Orbital elements
Apogee altitude
435.391 km
Perigee altitude
419.324 km
Semi-major axis
6,805.494 km
Eccentricity
0.00118
Inclination
53.0492°
RAAN
132.122°
Arg. of periapsis
130.3476°
True anomaly
171.5915°
Mean anomaly
171.5717°
Eccentric anomaly
171.5816°
Mean motion
3.86593 °/min
Orbital period
93.12 mins
BSTAR
0.0028535
Loading maneuver chart data...
Computing Atmospheric mass density...
Loading historical data...
Loading historical data...
Loading historical data...
Loading historical data...
Loading historical data...
Loading historical data...
Loading historical data...

Documentation

Showing up to 5 results
|